Weather History for Telluride, CO

Change the Weather History Date:

Wednesday, July 17, 2013

  Actual Average Record
Temperature  
Mean Temperature 60 °F -  
Max Temperature 69 °F 72 °F 87 °F (2010)
Min Temperature 51 °F 49 °F 48 °F (2002)
Degree Days  
Heating Degree Days 5    
Growing Degree Days 10 (Base 50)    
Moisture  
Dew Point 52 °F    
Average Humidity 78    
Maximum Humidity 100    
Minimum Humidity 49    
Precipitation  
Precipitation 0.06 in - - ()
Sea Level Pressure  
Sea Level Pressure 30.51 in    
Wind  
Wind Speed 4 mph (South)    
Max Wind Speed 17 mph    
Max Gust Speed 22 mph    
Visibility 10 miles    
Events Rain , Thunderstorm    
Averages and records for this station are not official NWS values.
T = Trace of Precipitation, MM = Missing Value Source: NWS Daily Summary

Daily Weather History Graph

Daily Weather History Graph

Search for Another Location

Airport:

Trip Planner

Search our weather history database for the weather conditions in past years. The results will help you decide how hot, cold, wet, or windy it might be!

Date:

Astronomy

Jul. 17, 2013 Rise Set
Actual Time 6:02 AM MDT 8:32 PM MDT
Civil Twilight 5:32 AM MDT 9:02 PM MDT
Nautical Twilight 4:54 AM MDT 9:40 PM MDT
Astronomical Twilight 4:13 AM MDT 10:21 PM MDT
Moon 3:26 PM MDT (7/17) 1:10 AM MDT (7/17)
Length of Visible Light 15h 30m
Length of Day
14h 29m
Waxing Gibbous, 68% of the Moon is Illuminated
Jul 17
Waxing Gibbous
Jul 22
Full
Jul 29
Last Quarter
Aug 6
New
Aug 14
First Quarter

Hourly Weather History & Observations

Time (MDT) Temp. Dew Point Humidity Pressure Visibility Wind Dir Wind Speed Gust Speed Precip Events Conditions
12:15 AM 53.6 °F 53.6 °F 100% 30.49 in 10.0 mi ESE 6.9 mph - N/A Thunderstorm Scattered Clouds
12:35 AM 53.6 °F 53.6 °F 100% 30.49 in 10.0 mi ESE 6.9 mph - N/A   Mostly Cloudy
12:55 AM 55.4 °F 51.8 °F 88% 30.49 in 10.0 mi ESE 3.5 mph - N/A   Overcast
1:15 AM 53.6 °F 51.8 °F 94% 30.49 in 10.0 mi East 6.9 mph - N/A   Overcast
1:35 AM 53.6 °F 51.8 °F 94% 30.49 in 10.0 mi ESE 4.6 mph - N/A Thunderstorm Scattered Clouds
1:55 AM 53.6 °F 51.8 °F 94% 30.49 in 10.0 mi Calm Calm - N/A   Scattered Clouds
2:15 AM 53.6 °F 51.8 °F 94% 30.49 in 10.0 mi SE 5.8 mph - N/A   Clear
2:35 AM 53.6 °F 51.8 °F 94% 30.49 in 10.0 mi SE 3.5 mph - N/A   Scattered Clouds
2:55 AM 53.6 °F 51.8 °F 94% 30.50 in 10.0 mi Calm Calm - N/A   Scattered Clouds
3:15 AM 53.6 °F 51.8 °F 94% 30.50 in 10.0 mi Calm Calm - N/A   Scattered Clouds
3:35 AM 53.6 °F 50.0 °F 88% 30.49 in 10.0 mi Calm Calm - N/A   Mostly Cloudy
3:55 AM 53.6 °F 51.8 °F 94% 30.50 in 10.0 mi SE 5.8 mph - N/A   Overcast
4:15 AM 53.6 °F 50.0 °F 88% 30.50 in 10.0 mi Calm Calm - N/A   Mostly Cloudy
4:35 AM 53.6 °F 50.0 °F 88% 30.50 in 10.0 mi Calm Calm - N/A   Mostly Cloudy
4:55 AM 53.6 °F 50.0 °F 88% 30.51 in 10.0 mi ESE 4.6 mph - N/A   Overcast
5:15 AM 53.6 °F 50.0 °F 88% 30.50 in 10.0 mi Calm Calm - N/A   Mostly Cloudy
5:35 AM 53.6 °F 50.0 °F 88% 30.50 in 10.0 mi SE 5.8 mph - N/A   Mostly Cloudy
5:55 AM 53.6 °F 50.0 °F 88% 30.51 in 10.0 mi East 3.5 mph - N/A   Scattered Clouds
6:15 AM 51.8 °F 50.0 °F 94% 30.51 in 10.0 mi Calm Calm - N/A   Mostly Cloudy
6:35 AM 53.6 °F 50.0 °F 88% 30.51 in 10.0 mi Calm Calm - N/A   Overcast
6:55 AM 53.6 °F 50.0 °F 88% 30.51 in 10.0 mi Calm Calm - N/A   Mostly Cloudy
7:15 AM 53.6 °F 50.0 °F 88% 30.51 in 10.0 mi Calm Calm - N/A   Overcast
7:35 AM 53.6 °F 50.0 °F 88% 30.53 in 10.0 mi Calm Calm - N/A   Scattered Clouds
7:55 AM 53.6 °F 50.0 °F 88% 30.53 in 10.0 mi Calm Calm - N/A   Mostly Cloudy
8:15 AM 55.4 °F 50.0 °F 82% 30.53 in 10.0 mi Calm Calm - N/A   Overcast
8:35 AM 57.2 °F 50.0 °F 77% 30.53 in 10.0 mi Calm Calm - N/A   Overcast
8:55 AM 57.2 °F 50.0 °F 77% 30.54 in 10.0 mi Calm Calm - N/A   Mostly Cloudy
9:15 AM 57.2 °F 50.0 °F 77% 30.54 in 10.0 mi Calm Calm - N/A   Overcast
9:35 AM 59.0 °F 51.8 °F 77% 30.53 in 10.0 mi Calm Calm - N/A   Overcast
9:55 AM 59.0 °F 51.8 °F 77% 30.53 in 10.0 mi Calm Calm - N/A   Mostly Cloudy
10:15 AM 60.8 °F 51.8 °F 72% 30.53 in 10.0 mi Calm Calm - N/A   Scattered Clouds
10:35 AM 62.6 °F 50.0 °F 63% 30.54 in 10.0 mi West 3.5 mph - N/A   Mostly Cloudy
10:55 AM 62.6 °F 51.8 °F 68% 30.55 in 10.0 mi Calm Calm - N/A   Overcast
11:15 AM 64.4 °F 51.8 °F 64% 30.55 in 10.0 mi Calm Calm - 0.01 in   Overcast
11:35 AM 64.4 °F 51.8 °F 64% 30.54 in 10.0 mi West 4.6 mph - 0.01 in   Mostly Cloudy
11:55 AM 66.2 °F 51.8 °F 60% 30.53 in 10.0 mi West 10.4 mph - 0.01 in   Scattered Clouds
12:15 PM 66.2 °F 51.8 °F 60% 30.53 in 10.0 mi West 8.1 mph - N/A   Mostly Cloudy
12:35 PM 66.2 °F 50.0 °F 56% 30.53 in 10.0 mi West 10.4 mph 16.1 mph N/A   Overcast
12:55 PM 68.0 °F 51.8 °F 56% 30.51 in 10.0 mi WNW 6.9 mph - N/A   Mostly Cloudy
1:15 PM 69.8 °F 51.8 °F 53% 30.51 in 10.0 mi West 11.5 mph 20.7 mph N/A   Scattered Clouds
1:35 PM 68.0 °F 51.8 °F 56% 30.51 in 10.0 mi WNW 5.8 mph 17.3 mph N/A   Mostly Cloudy
1:55 PM 69.8 °F 50.0 °F 49% 30.50 in 10.0 mi WNW 11.5 mph 20.7 mph N/A   Mostly Cloudy
2:15 PM 69.8 °F 50.0 °F 49% 30.50 in 10.0 mi WNW 8.1 mph 17.3 mph N/A   Mostly Cloudy
2:35 PM 69.8 °F 51.8 °F 53% 30.50 in 10.0 mi Calm Calm - N/A Rain Rain
2:55 PM 66.2 °F 53.6 °F 64% 30.49 in 10.0 mi West 6.9 mph - 0.02 in Thunderstorm Thunderstorm
3:15 PM 68.0 °F 53.6 °F 60% 30.48 in 10.0 mi West 11.5 mph 18.4 mph N/A   Scattered Clouds
3:35 PM 69.8 °F 51.8 °F 53% 30.48 in 10.0 mi West 15.0 mph 21.9 mph N/A Thunderstorm Clear
3:55 PM 68.0 °F 50.0 °F 52% 30.47 in 10.0 mi West 17.3 mph 20.7 mph N/A   Clear
4:15 PM 68.0 °F 50.0 °F 52% 30.47 in 10.0 mi West 17.3 mph 21.9 mph N/A Thunderstorm Thunderstorm
4:35 PM 68.0 °F 50.0 °F 52% 30.47 in 10.0 mi West 15.0 mph 20.7 mph N/A Thunderstorm Thunderstorm
4:55 PM 68.0 °F 50.0 °F 52% 30.47 in 10.0 mi West 13.8 mph 20.7 mph N/A Thunderstorm Thunderstorm
5:15 PM 66.2 °F 50.0 °F 56% 30.48 in 10.0 mi SSE 10.4 mph - N/A Thunderstorm Thunderstorm
5:35 PM 62.6 °F 50.0 °F 63% 30.49 in 10.0 mi ESE 9.2 mph 20.7 mph N/A Thunderstorm Thunderstorm
5:55 PM 60.8 °F 51.8 °F 72% 30.49 in 5.0 mi ESE 4.6 mph - 0.01 in Rain , Thunderstorm Heavy Thunderstorms and Rain
6:15 PM 59.0 °F 53.6 °F 82% 30.49 in 10.0 mi ESE 8.1 mph - 0.02 in Rain , Thunderstorm Light Thunderstorms and Rain
6:35 PM 59.0 °F 53.6 °F 82% 30.50 in 10.0 mi East 5.8 mph - 0.02 in Rain , Thunderstorm Light Thunderstorms and Rain
6:55 PM 59.0 °F 51.8 °F 77% 30.50 in 10.0 mi East 5.8 mph - 0.02 in Rain Light Rain
7:15 PM 59.0 °F 53.6 °F 82% 30.51 in 10.0 mi ESE 5.8 mph - N/A Thunderstorm Overcast
7:35 PM 59.0 °F 53.6 °F 82% 30.51 in 10.0 mi SE 5.8 mph - N/A Rain , Thunderstorm Light Thunderstorms and Rain
7:55 PM 59.0 °F 53.6 °F 82% 30.50 in 10.0 mi SSE 6.9 mph - N/A   Overcast
8:15 PM 59.0 °F 53.6 °F 82% 30.50 in 10.0 mi SE 3.5 mph - N/A   Mostly Cloudy
8:35 PM 59.0 °F 55.4 °F 88% 30.50 in 10.0 mi Calm Calm - N/A Thunderstorm Mostly Cloudy
8:55 PM 59.0 °F 53.6 °F 82% 30.51 in 10.0 mi Calm Calm - N/A Thunderstorm Mostly Cloudy
9:15 PM 59.0 °F 55.4 °F 88% 30.51 in 10.0 mi Calm Calm - N/A   Overcast
9:35 PM 59.0 °F 55.4 °F 88% 30.52 in 10.0 mi Calm Calm - N/A Thunderstorm Thunderstorm
9:55 PM 59.0 °F 55.4 °F 88% 30.51 in 10.0 mi Calm Calm - N/A Thunderstorm Overcast
10:15 PM 57.2 °F 55.4 °F 94% 30.52 in 10.0 mi Calm Calm - N/A   Overcast
10:35 PM 57.2 °F 55.4 °F 94% 30.54 in 10.0 mi Calm Calm - N/A Thunderstorm Overcast
10:55 PM 59.0 °F 53.6 °F 82% 30.54 in 10.0 mi Calm Calm - N/A Thunderstorm Thunderstorm
11:15 PM 59.0 °F 55.4 °F 88% 30.53 in 10.0 mi SSE 4.6 mph - N/A Rain , Thunderstorm Light Thunderstorms and Rain
11:35 PM 57.2 °F 55.4 °F 94% 30.54 in 10.0 mi Calm Calm - N/A Rain , Thunderstorm Light Thunderstorms and Rain
11:55 PM 55.4 °F 55.4 °F 100% 30.55 in 10.0 mi Calm Calm - N/A Thunderstorm Thunderstorm